[[{"header":{"parameterUnit":"m.s-1","parameterCategory":1,"la1":30.2991,"la2":30.254,"lo1":-89.0895,"lo2":-89.0444,"dy":0.0017,"dx":0.0017,"nx":28,"ny":28,"refTime":"2025-05-18T03:00:00:Z","depth":0,"parameterNumber":2,"parameterNumberName":"U-component_of_WINDS"},"data":[0,0,0,0,0,0,0,0,0,0,0,0,0,0,0,0,0,0,0,0,0,0,0,0,0,0,0,0,0,0,0,0,0,0,0,0,0,0,0,0,0,0,0,0,0,0,0,0,0,0,0,0,0,0,0,0,0,0,-1.3287,-1.3287,0,-1.3198,-1.3197,-1.3196,-1.3128,-1.3127,-1.3127,-1.3126,-1.3034,-1.3032,-1.303,0,0,0,0,0,0,0,0,0,0,0,0,0,-1.3401,-1.3399,-1.3288,-1.3286,-1.3285,-1.3198,-1.3197,-1.3196,-1.3128,-1.3127,-1.3127,-1.3126,-1.3034,-1.3032,-1.303,0,0,0,0,0,0,0,0,0,0,0,0,0,-1.3336,-1.3399,-1.3288,-1.3241,-1.3236,-1.3198,-1.3197,-1.3195,-1.3128,-1.3127,-1.3126,-1.3126,-1.3035,-1.3032,-1.303,-1.3031,0,0,-1.3021,-1.302,0,0,0,0,0,0,0,0,-1.334,-1.3332,-1.3249,-1.3244,-1.3239,-1.3173,-1.3203,-1.314,-1.3129,-1.3169,-1.3126,-1.3125,-1.3081,-1.3074,-1.306,-1.3027,-1.3023,-1.3021,-1.3019,-1.3018,-1.3017,0,0,0,0,0,0,0,-1.3344,-1.3335,-1.3252,-1.3248,-1.3242,-1.3225,-1.3215,-1.3191,-1.3131,-1.3166,-1.316,-1.3151,-1.3078,-1.3062,-1.3057,-1.3021,-1.3021,-1.3018,-1.3017,-1.3016,-1.2986,-1.2987,0,0,0,0,0,0,-1.3356,-1.3339,-1.3255,-1.3249,-1.3288,-1.3224,-1.3212,-1.3195,-1.3131,-1.3121,-1.3152,-1.3148,-1.3068,-1.306,-1.3053,-1.3051,-1.3018,-1.3015,-1.3014,-1.2985,-1.2987,-1.2988,0,0,0,0,0,0,-1.3359,-1.3349,-1.3259,-1.3293,-1.328,-1.3223,-1.3204,-1.3194,-1.3178,-1.3121,-1.311,-1.3147,-1.3067,-1.3057,-1.3037,-1.3047,-1.3014,-1.3011,-1.2984,-1.2986,-1.2987,-1.3046,0,0,0,0,0,0,-1.3362,-1.335,-1.335,-1.3293,-1.3279,-1.3244,-1.3205,-1.3193,-1.3174,-1.3168,-1.3113,-1.3103,-1.3065,-1.3042,-1.3035,-1.3042,-1.3009,-1.2983,-1.2985,-1.2987,-1.3043,-1.3049,-1.3055,0,0,0,0,0,-1.3366,-1.337,-1.335,-1.334,-1.3277,-1.3245,-1.3236,-1.3192,-1.3175,-1.3174,-1.3138,-1.3105,-1.3048,-1.3041,-1.3032,-1.3039,-1.2982,-1.2985,-1.2987,-1.304,-1.3048,-1.3055,0,0,0,0,0,0,-1.3428,-1.3361,-1.3339,-1.3324,-1.3291,-1.3233,-1.323,-1.3202,-1.3172,-1.3168,-1.3115,-1.3103,-1.3089,-1.3062,-1.3055,-1.3037,-1.3011,-1.3011,-1.3055,-1.3062,-1.3068,-1.3074,-1.3007,0,0,0,0,0,-1.344,-1.3419,-1.3362,-1.3355,-1.3339,-1.3288,-1.3272,-1.3242,-1.3205,-1.319,-1.3152,-1.3118,-1.3092,-1.3075,-1.3048,-1.304,-1.3027,-1.304,-1.3046,-1.3051,-1.3052,-1.3046,-1.3051,-1.2994,-1.2994,-1.2994,0,0,-1.3464,-1.3425,-1.3415,-1.3366,-1.3336,-1.3316,-1.3276,-1.3257,-1.3241,-1.3187,-1.3166,-1.3137,-1.3095,-1.3081,-1.3073,-1.3058,-1.3065,-1.3054,-1.3059,-1.3056,-1.3049,-1.3054,-1.3059,-1.2996,-1.2996,-1.2995,0,0,-1.3497,-1.3466,-1.3456,-1.3428,-1.3384,-1.3351,-1.3349,-1.3296,-1.3275,-1.3254,-1.3213,-1.3194,-1.3151,-1.3123,-1.3103,-1.3129,-1.3098,-1.3122,-1.3151,-1.3147,-1.3151,-1.3155,-1.3164,-1.3168,-1.3123,-1.3123,-1.3123,0,-1.3533,-1.35,-1.3455,-1.3438,-1.3418,-1.3369,-1.336,-1.3334,-1.3284,-1.3272,-1.3256,-1.3201,-1.317,-1.3149,-1.3156,-1.3141,-1.3137,-1.3127,-1.3154,-1.3157,-1.316,-1.3168,-1.3172,-1.3126,-1.3126,-1.3125,-1.3125,0,-1.3546,-1.3525,-1.3523,-1.3476,-1.3456,-1.3443,-1.3396,-1.3381,-1.3353,-1.3322,-1.3301,-1.3262,-1.3226,-1.322,-1.3192,-1.3195,-1.3188,-1.3164,-1.3136,-1.3169,-1.3176,-1.3179,-1.313,-1.3129,-1.3128,-1.3128,0,0,-1.3613,-1.3543,-1.3543,-1.3522,-1.3471,-1.3454,-1.344,-1.3405,-1.3394,-1.3362,-1.3348,-1.3314,-1.3292,-1.327,-1.3239,-1.3235,-1.3259,-1.3212,-1.321,-1.3221,-1.3261,-1.3278,-1.3282,-1.3239,-1.3239,-1.324,-1.3264,0,-1.3638,-1.3609,-1.3568,-1.3553,-1.3533,-1.3488,-1.3475,-1.3443,-1.3414,-1.3393,-1.3361,-1.3338,-1.3311,-1.3297,-1.3292,-1.3257,-1.3266,-1.3255,-1.3226,-1.3225,-1.3236,-1.3286,-1.3303,-1.3328,-1.3266,-1.3267,-1.3267,0,-1.3662,-1.3633,-1.3616,-1.3568,-1.3558,-1.3547,-1.3514,-1.3495,-1.3458,-1.3438,-1.3414,-1.3381,-1.3364,-1.3341,-1.3317,-1.3311,-1.3297,-1.3279,-1.3278,-1.3273,-1.3247,-1.3281,-1.3335,-1.3338,-1.3271,-1.3271,-1.327,0,-1.3713,-1.3669,-1.3653,-1.3637,-1.3581,-1.3574,-1.3551,-1.3513,-1.3496,-1.3467,-1.3456,-1.3425,-1.3408,-1.3386,-1.3346,-1.3333,-1.3327,-1.33,-1.3309,-1.331,-1.3308,-1.3309,-1.336,-1.3302,-1.3302,-1.3302,-1.3302,0,-1.3744,-1.3735,-1.3675,-1.3665,-1.3654,-1.3609,-1.36,-1.3572,-1.354,-1.3524,-1.3484,-1.347,-1.3419,-1.3399,-1.3368,-1.3354,-1.3346,-1.3329,-1.3321,-1.3332,-1.3334,-1.3321,-1.3318,-1.3303,-1.3302,-1.3302,-1.3302,0,-1.3797,-1.3757,-1.3736,-1.3686,-1.3673,-1.3667,-1.3624,-1.3613,-1.3583,-1.3564,-1.3557,-1.3509,-1.3485,-1.3443,-1.3406,-1.3386,-1.3377,-1.3363,-1.3389,-1.3384,-1.3395,-1.3395,-1.3439,-1.3442,-1.3383,-1.3384,-1.3384,0,-1.3819,-1.3811,-1.376,-1.3747,-1.3725,-1.3704,-1.3687,-1.3643,-1.3626,-1.3586,-1.358,-1.3552,-1.3528,-1.3491,-1.3453,-1.3425,-1.341,-1.3428,-1.3405,-1.3417,-1.341,-1.341,-1.3409,-1.3432,-1.3433,-1.3434,-1.3434,0,-1.3862,-1.3843,-1.3819,-1.3789,-1.377,-1.3744,-1.3716,-1.3708,-1.3658,-1.3642,-1.3616,-1.3597,-1.3561,-1.3534,-1.3501,-1.3477,-1.3448,-1.3442,-1.3443,-1.3453,-1.3468,-1.346,-1.3402,-1.3441,-1.344,-1.344,-1.3439,-1.3439,-1.39,-1.3891,-1.3854,-1.3829,-1.3804,-1.378,-1.3767,-1.3736,-1.3714,-1.3681,-1.3657,-1.3633,-1.3599,-1.3552,-1.353,-1.3511,-1.3498,-1.3499,-1.3499,-1.3499,-1.3504,-1.3473,-1.3505,-1.3505,-1.3505,-1.3505,-1.3504,0,-1.394,-1.3915,-1.3893,-1.3855,-1.3837,-1.3812,-1.378,-1.3766,-1.3746,-1.3716,-1.3693,-1.3665,-1.3639,-1.3601,-1.3572,-1.3565,-1.3551,-1.3559,-1.3558,-1.3554,-1.3517,-1.3519,-1.3571,-1.3571,-1.3571,-1.3571,-1.3571,-1.3571,-1.3959,-1.3943,-1.392,-1.3892,-1.3866,-1.3843,-1.3827,-1.3805,-1.3781,-1.3751,-1.373,-1.3705,-1.3672,-1.3642,-1.3618,-1.3607,-1.3598,-1.3611,-1.3596,-1.3562,-1.3556,-1.355,-1.3552,-1.3609,-1.3609,-1.3633,-1.3634,-1.3634]},{"header":{"parameterUnit":"m.s-1","parameterCategory":1,"la1":30.2991,"la2":30.254,"lo1":-89.0895,"lo2":-89.0444,"dy":0.0017,"dx":0.0017,"nx":28,"ny":28,"refTime":"2025-05-18T03:00:00:Z","depth":0,"parameterNumber":3,"parameterNumberName":"V-component_of_WINDS"},"data":[0,0,0,0,0,0,0,0,0,0,0,0,0,0,0,0,0,0,0,0,0,0,0,0,0,0,0,0,0,0,0,0,0,0,0,0,0,0,0,0,0,0,0,0,0,0,0,0,0,0,0,0,0,0,0,0,0,0,4.5405,4.5404,0,4.5324,4.5323,4.5322,4.5283,4.5283,4.5283,4.5283,4.5193,4.5191,4.5188,0,0,0,0,0,0,0,0,0,0,0,0,0,4.5521,4.5519,4.5405,4.5404,4.5403,4.5324,4.5323,4.5321,4.5283,4.5283,4.5283,4.5283,4.5194,4.5191,4.5188,0,0,0,0,0,0,0,0,0,0,0,0,0,4.5458,4.5518,4.5405,4.5374,4.5371,4.5324,4.5322,4.5321,4.5283,4.5283,4.5283,4.5283,4.5195,4.5191,4.5188,4.5164,0,0,4.5176,4.5175,0,0,0,0,0,0,0,0,4.5461,4.5454,4.538,4.5376,4.5372,4.5313,4.533,4.5268,4.5283,4.5316,4.5283,4.5283,4.5233,4.5226,4.521,4.5159,4.5156,4.5176,4.5174,4.5172,4.5171,0,0,0,0,0,0,0,4.5466,4.5457,4.5372,4.5379,4.5374,4.5362,4.5354,4.5318,4.5274,4.5313,4.531,4.5301,4.523,4.5214,4.5208,4.5154,4.5176,4.5173,4.5171,4.5169,4.508,4.508,0,0,0,0,0,0,4.5476,4.5461,4.5375,4.537,4.5418,4.536,4.535,4.5332,4.5275,4.5266,4.5301,4.53,4.522,4.5212,4.5205,4.5173,4.5172,4.5169,4.5167,4.508,4.508,4.508,0,0,0,0,0,0,4.5479,4.5469,4.5378,4.5415,4.5402,4.5358,4.5338,4.533,4.5314,4.5266,4.5257,4.5293,4.522,4.521,4.5175,4.5169,4.5167,4.5164,4.508,4.508,4.508,4.511,0,0,0,0,0,0,4.5482,4.547,4.5462,4.5415,4.5401,4.5352,4.5338,4.5329,4.5308,4.5306,4.5256,4.5248,4.5219,4.518,4.5171,4.5164,4.5161,4.508,4.508,4.508,4.5109,4.5111,4.5112,0,0,0,0,0,4.5487,4.5472,4.5462,4.5451,4.539,4.5351,4.5343,4.5312,4.5308,4.5299,4.5268,4.5249,4.5172,4.5177,4.5166,4.5158,4.5081,4.508,4.508,4.5108,4.511,4.5112,0,0,0,0,0,0,4.5516,4.5465,4.5453,4.5423,4.5392,4.5345,4.5332,4.5315,4.5283,4.5281,4.5243,4.5232,4.52,4.5176,4.5183,4.5132,4.5124,4.5122,4.515,4.5151,4.5153,4.5159,4.5158,0,0,0,0,0,4.552,4.5496,4.5451,4.5429,4.5414,4.5376,4.5358,4.5338,4.5303,4.5289,4.5256,4.5221,4.5189,4.5169,4.5136,4.5105,4.5094,4.5095,4.5096,4.5097,4.5095,4.5078,4.5077,4.5078,4.5078,4.5078,0,0,4.5526,4.5495,4.5481,4.5434,4.5408,4.5382,4.5365,4.5338,4.5317,4.5284,4.525,4.5224,4.5183,4.5151,4.5134,4.5129,4.5093,4.5097,4.5098,4.5096,4.5077,4.5077,4.5077,4.5078,4.5078,4.5078,0,0,4.5524,4.5499,4.5478,4.5453,4.5414,4.5389,4.5384,4.5339,4.5322,4.5288,4.5263,4.5237,4.5182,4.5154,4.5133,4.5122,4.5103,4.5112,4.512,4.5103,4.5103,4.5102,4.5098,4.5098,4.5111,4.5111,4.5111,0,4.5536,4.5498,4.5469,4.5444,4.5423,4.5395,4.5372,4.5348,4.53,4.5286,4.5281,4.5213,4.5183,4.5144,4.5142,4.5125,4.5117,4.5118,4.5105,4.5105,4.5104,4.51,4.5099,4.5112,4.5112,4.5112,4.5112,0,4.5515,4.5489,4.5476,4.5433,4.5411,4.5388,4.5353,4.5334,4.5316,4.5291,4.5256,4.5219,4.518,4.5169,4.5149,4.5127,4.5125,4.5113,4.5104,4.5106,4.5101,4.51,4.5114,4.5114,4.5113,4.5113,0,0,4.5528,4.5472,4.5467,4.5448,4.5404,4.5382,4.5357,4.532,4.5305,4.5273,4.525,4.5205,4.5195,4.5171,4.5148,4.5133,4.5127,4.5123,4.5121,4.5125,4.51,4.5109,4.5108,4.5115,4.5114,4.5114,4.5103,0,4.552,4.5477,4.545,4.5416,4.5391,4.5364,4.5342,4.5312,4.5288,4.5262,4.5234,4.5204,4.5192,4.5178,4.5162,4.5131,4.5121,4.5132,4.5092,4.5091,4.5103,4.5105,4.5114,4.5106,4.5101,4.5101,4.5101,0,4.5505,4.5477,4.5441,4.5401,4.539,4.5371,4.5336,4.5312,4.5276,4.526,4.5234,4.5212,4.5182,4.5177,4.5135,4.5143,4.5125,4.5108,4.5107,4.5101,4.5096,4.51,4.5102,4.5101,4.5098,4.5098,4.5098,0,4.5519,4.5472,4.5445,4.5429,4.5381,4.5368,4.5347,4.5313,4.5293,4.5261,4.5248,4.5213,4.5193,4.5166,4.5134,4.5133,4.5096,4.5087,4.5081,4.5081,4.5073,4.5074,4.5073,4.5062,4.5062,4.5062,4.5063,0,4.5513,4.5492,4.545,4.5434,4.5409,4.5378,4.5355,4.5331,4.5301,4.5278,4.5251,4.523,4.5189,4.5163,4.5137,4.5107,4.5098,4.5083,4.5077,4.5086,4.5088,4.5073,4.5073,4.5062,4.5062,4.5062,4.5062,0,4.5524,4.5495,4.5464,4.5423,4.5412,4.5396,4.5359,4.5341,4.5317,4.5288,4.5279,4.524,4.5207,4.5173,4.5128,4.5111,4.5081,4.5072,4.5094,4.5091,4.5086,4.5087,4.5075,4.5072,4.5064,4.5064,4.5064,0,4.5522,4.5506,4.5464,4.5448,4.5429,4.5403,4.5383,4.5352,4.5332,4.5292,4.5278,4.5244,4.5215,4.5164,4.513,4.5095,4.5085,4.5083,4.5079,4.5089,4.5085,4.5086,4.5084,4.5085,4.5085,4.5085,4.5085,0,4.5522,4.5509,4.5483,4.5452,4.5431,4.5404,4.5377,4.5364,4.5327,4.5306,4.5274,4.5252,4.5207,4.5173,4.5135,4.5111,4.5092,4.5087,4.5084,4.5092,4.5106,4.5099,4.5098,4.5087,4.5087,4.5087,4.5087,4.5087,4.5526,4.5511,4.5479,4.5451,4.5428,4.5403,4.5385,4.5359,4.5333,4.5295,4.5278,4.5246,4.521,4.5158,4.5135,4.5107,4.5102,4.5097,4.5095,4.5095,4.5097,4.5111,4.51,4.51,4.51,4.51,4.51,0,4.5524,4.5503,4.5478,4.5442,4.542,4.5406,4.5375,4.5357,4.533,4.53,4.5273,4.5236,4.5203,4.5168,4.5133,4.5118,4.5108,4.511,4.511,4.5105,4.5104,4.5111,4.5118,4.5118,4.5118,4.5118,4.5118,4.5118,4.5521,4.5495,4.5478,4.544,4.5418,4.5388,4.5372,4.5349,4.5325,4.5286,4.526,4.5238,4.5205,4.5168,4.5137,4.5127,4.5115,4.5119,4.5107,4.5106,4.5105,4.5104,4.511,4.5117,4.5117,4.511,4.511,4.511]}]]